Guthrie, OK

9:41 AM CDT on July 20, 2017 (GMT -0500)
Guthrie Municipal

Weather History for KGOK - November, 2012

Change the Weather History Date:

Sunday, November 4, 2012

  Actual Average Record
Temperature  
Mean Temperature 53 °F -  
Max Temperature 72 °F 62 °F 84 °F (2005)
Min Temperature 35 °F 40 °F 22 °F (1952)
Degree Days  
Heating Degree Days 12    
Growing Degree Days 3 (Base 50)    
Moisture  
Dew Point 34 °F    
Average Humidity 54    
Maximum Humidity 85    
Minimum Humidity 21    
Precipitation  
Precipitation 0.00 in - - ()
Sea Level Pressure  
Sea Level Pressure 30.15 in    
Wind  
Wind Speed 2 mph (SE)    
Max Wind Speed 8 mph    
Max Gust Speed -    
Visibility 10 miles    
Events      
Averages and records for this station are not official NWS values.
T = Trace of Precipitation, MM = Missing Value Source: NWS Daily Summary

Daily Weather History Graph

Daily Weather History Graph

Search for Another Location

Airport or City:

Trip Planner

Search our weather history database for the weather conditions in past years. The results will help you decide how hot, cold, wet, or windy it might be!

Date:

Astronomy

Nov. 04, 2012 Rise Set
Actual Time 6:55 AM CST 5:30 PM CST
Civil Twilight 6:28 AM CST 5:57 PM CST
Nautical Twilight 5:58 AM CST 6:27 PM CST
Astronomical Twilight 5:28 AM CST 6:57 PM CST
Moon 10:11 PM CST (11/4) 11:37 AM CST (11/4)
Length of Visible Light 11h 28m
Length of Day
10h 35m
Waning Gibbous, 72% of the Moon is Illuminated
Nov 4
Waning Gibbous
Nov 6
Last Quarter
Nov 13
New
Nov 20
First Quarter
Nov 28
Full

Hourly Weather History & Observations

Time (CST) Temp. Windchill Dew Point Humidity Pressure Visibility Wind Dir Wind Speed Gust Speed Precip Events Conditions
12:53 AM 46.9 °F - 35.1 °F 63% 30.18 in 10.0 mi Calm Calm - N/A   Clear
1:53 AM 44.1 °F - 35.1 °F 71% 30.19 in 10.0 mi Calm Calm - N/A   Clear
1:53 AM 45.0 °F 43.5 °F 34.0 °F 65% 30.19 in 10.0 mi NE 3.5 mph - N/A   Clear
2:53 AM 43.0 °F - 33.1 °F 68% 30.20 in 10.0 mi Calm Calm - N/A   Clear
3:53 AM 39.0 °F - 34.0 °F 82% 30.21 in 10.0 mi Calm Calm - N/A   Clear
4:53 AM 39.0 °F 36.8 °F 34.0 °F 82% 30.21 in 10.0 mi North 3.5 mph - N/A   Clear
5:53 AM 36.0 °F - 30.9 °F 82% 30.21 in 10.0 mi Calm Calm - N/A   Clear
6:53 AM 35.1 °F - 30.9 °F 85% 30.22 in 10.0 mi Calm Calm - N/A   Clear
7:53 AM 39.9 °F - 35.1 °F 83% 30.23 in 10.0 mi Calm Calm - N/A   Clear
8:53 AM 46.0 °F - 36.0 °F 68% 30.23 in 10.0 mi Calm Calm - N/A   Clear
9:53 AM 54.0 °F - 37.9 °F 55% 30.22 in 10.0 mi Variable 3.5 mph - N/A   Clear
10:53 AM 63.0 °F - 33.1 °F 33% 30.21 in 10.0 mi ENE 4.6 mph - N/A   Clear
11:53 AM 66.0 °F - 32.0 °F 28% 30.17 in 10.0 mi Variable 4.6 mph - N/A   Clear
12:53 PM 68.0 °F - 33.1 °F 27% 30.13 in 10.0 mi Variable 4.6 mph - N/A   Clear
1:53 PM 70.0 °F - 30.0 °F 23% 30.10 in 10.0 mi Calm Calm - N/A   Clear
2:53 PM 71.1 °F - 28.9 °F 21% 30.07 in 10.0 mi SSE 5.8 mph - N/A   Clear
3:53 PM 71.1 °F - 32.0 °F 24% 30.06 in 10.0 mi South 8.1 mph - N/A   Clear
4:53 PM 68.0 °F - 33.1 °F 27% 30.06 in 10.0 mi South 4.6 mph - N/A   Clear
5:53 PM 60.1 °F - 34.0 °F 38% 30.07 in 10.0 mi SE 3.5 mph - N/A   Clear
6:53 PM 57.0 °F - 35.1 °F 44% 30.08 in 10.0 mi Calm Calm - N/A   Clear
7:53 PM 53.1 °F - 35.1 °F 50% 30.09 in 10.0 mi SSE 3.5 mph - N/A   Clear
8:53 PM 51.1 °F - 36.0 °F 56% 30.09 in 10.0 mi South 3.5 mph - N/A   Clear
9:53 PM 51.1 °F - 37.0 °F 59% 30.08 in 10.0 mi South 4.6 mph - N/A   Clear
10:53 PM 51.1 °F - 37.0 °F 59% 30.07 in 10.0 mi SSW 3.5 mph - N/A   Clear